Location: Caltech
(34.1382°N, 118.1253°W)
Time: 19:22:36
(UTC-07:00)

CZ-2C R/B - Visible Passes

Search period start: 04 August 2015 00:00
Search period end: 14 August 2015 00:00
Orbit: 703 x 910 km, 98.1° (Epoch: 04 August)

Date Brightness Start Highest point End Pass type
(mag) Time Alt. Az. Time Alt. Az. Time Alt. Az.
04 Aug 4.5 02:25:15 31° NNE 02:25:15 31° NNE 02:27:55 10° N visible
05 Aug 5.0 02:00:22 22° NE 02:00:22 22° NE 02:02:45 10° NNE visible
05 Aug 5.0 03:41:27 15° NW 03:41:27 15° NW 03:42:28 10° NW visible
06 Aug 5.5 01:35:30 14° NE 01:35:30 14° NE 01:37:02 10° NNE visible
06 Aug 4.7 03:16:34 22° NW 03:16:34 22° NW 03:18:21 10° NNW visible
07 Aug 4.6 02:51:42 27° NNW 02:51:42 27° NNW 02:53:50 10° NNW visible
08 Aug 4.8 02:26:49 26° N 02:26:49 26° N 02:29:00 10° N visible
09 Aug 5.2 02:01:56 20° NNE 02:01:56 20° NNE 02:03:52 10° NNE visible
09 Aug 5.2 03:43:01 12° NW 03:43:01 12° NW 03:43:28 10° NW visible
10 Aug 5.6 01:37:03 14° NE 01:37:03 14° NE 01:38:12 10° NNE visible
10 Aug 4.9 03:18:08 18° NW 03:18:08 18° NW 03:19:23 10° NNW visible
11 Aug 4.9 02:53:15 22° NNW 02:53:15 22° NNW 02:54:54 10° NNW visible
12 Aug 5.0 02:28:22 22° N 02:28:22 22° N 02:30:06 10° N visible
13 Aug 5.3 02:03:29 18° NNE 02:03:29 18° NNE 02:04:59 10° N visible
